San Angelo, TX

11:44 PM CDT on June 26, 2017 (GMT -0500)
San Angelo Regional-Mathis

Weather History for KSJT - September, 2013

Change the Weather History Date:

Friday, September 13, 2013

  Actual Average Record
Temperature  
Mean Temperature 79 °F 76 °F  
Max Temperature 94 °F 89 °F 103 °F (1930)
Min Temperature 64 °F 64 °F 51 °F (1940)
Degree Days  
Heating Degree Days 0 0  
Month to date heating degree days 0 0  
Since 1 July heating degree days 0 0  
Cooling Degree Days 14 12  
Month to date cooling degree days 216 175  
Year to date cooling degree days 2542 2211  
Growing Degree Days 28 (Base 50)    
Moisture  
Dew Point 55 °F    
Average Humidity 50    
Maximum Humidity 78    
Minimum Humidity 22    
Precipitation  
Precipitation 0.00 in 0.08 in 1.32 in (1989)
Month to date precipitation 0.26 1.17  
Year to date precipitation 12.02 15.24  
Sea Level Pressure  
Sea Level Pressure 29.91 in    
Wind  
Wind Speed 6 mph (SE)    
Max Wind Speed 16 mph    
Max Gust Speed 25 mph    
Visibility 10 miles    
Events      
T = Trace of Precipitation, MM = Missing Value Source: NWS Daily Summary

Daily Weather History Graph

Daily Weather History Graph

Search for Another Location

Airport or City:

Trip Planner

Search our weather history database for the weather conditions in past years. The results will help you decide how hot, cold, wet, or windy it might be!

Date:

Astronomy

Sep. 13, 2013 Rise Set
Actual Time 7:25 AM CDT 7:49 PM CDT
Civil Twilight 7:00 AM CDT 8:14 PM CDT
Nautical Twilight 6:32 AM CDT 8:42 PM CDT
Astronomical Twilight 6:03 AM CDT 9:11 PM CDT
Moon 3:25 PM CDT (9/13) 1:12 AM CDT (9/13)
Length of Visible Light 13h 13m
Length of Day
12h 24m
First Quarter, 61% of the Moon is Illuminated
Sep 13
First Quarter
Sep 19
Full
Sep 26
Last Quarter
Oct 4
New
Oct 11
First Quarter

Hourly Weather History & Observations

Time (CDT) Temp. Heat Index Dew Point Humidity Pressure Visibility Wind Dir Wind Speed Gust Speed Precip Events Conditions
12:51 AM 73.0 °F - 55.0 °F 53% 29.96 in 10.0 mi Calm Calm - N/A   Clear
1:51 AM 70.0 °F - 53.1 °F 55% 29.96 in 10.0 mi Calm Calm - N/A   Clear
2:51 AM 69.1 °F - 55.0 °F 61% 29.95 in 10.0 mi SSW 4.6 mph - N/A   Clear
3:51 AM 69.1 °F - 57.0 °F 65% 29.94 in 10.0 mi WSW 3.5 mph - N/A   Clear
4:51 AM 69.1 °F - 57.0 °F 65% 29.95 in 10.0 mi SSW 3.5 mph - N/A   Clear
5:51 AM 68.0 °F - 55.9 °F 65% 29.94 in 10.0 mi Calm Calm - N/A   Clear
6:51 AM 64.9 °F - 55.9 °F 73% 29.96 in 10.0 mi Calm Calm - N/A   Clear
7:51 AM 64.9 °F - 57.0 °F 75% 29.97 in 10.0 mi SSW 3.5 mph - N/A   Clear
8:51 AM 73.0 °F - 59.0 °F 61% 29.98 in 10.0 mi Calm Calm - N/A   Partly Cloudy
9:51 AM 79.0 °F - 62.1 °F 56% 29.97 in 10.0 mi Calm Calm - N/A   Clear
10:51 AM 84.0 °F 85.4 °F 64.0 °F 51% 29.97 in 10.0 mi North 3.5 mph - N/A   Clear
11:51 AM 86.0 °F 86.3 °F 62.1 °F 44% 29.96 in 10.0 mi NE 8.1 mph - N/A   Clear
12:51 PM 89.1 °F 88.8 °F 60.1 °F 38% 29.93 in 10.0 mi East 4.6 mph - N/A   Scattered Clouds
1:51 PM 91.0 °F 89.7 °F 57.0 °F 32% 29.90 in 10.0 mi East 12.7 mph - N/A   Mostly Cloudy
2:51 PM 91.9 °F 90.0 °F 55.0 °F 29% 29.87 in 10.0 mi ESE 13.8 mph - N/A   Scattered Clouds
3:51 PM 93.0 °F - 52.0 °F 25% 29.84 in 10.0 mi ESE 13.8 mph 19.6 mph N/A   Scattered Clouds
4:51 PM 93.0 °F - 48.0 °F 21% 29.81 in 10.0 mi ESE 15.0 mph 20.7 mph N/A   Clear
5:51 PM 91.9 °F - 48.9 °F 23% 29.81 in 10.0 mi ESE 11.5 mph - N/A   Partly Cloudy
6:51 PM 91.0 °F - 52.0 °F 26% 29.81 in 10.0 mi ESE 11.5 mph - N/A   Scattered Clouds
7:51 PM 88.0 °F 85.7 °F 53.1 °F 30% 29.83 in 10.0 mi SSE 8.1 mph - N/A   Partly Cloudy
8:51 PM 82.0 °F - 52.0 °F 35% 29.84 in 10.0 mi SE 5.8 mph - N/A   Clear
9:51 PM 80.1 °F - 52.0 °F 38% 29.86 in 10.0 mi SSE 5.8 mph - N/A   Clear
10:51 PM 77.0 °F - 53.1 °F 43% 29.86 in 10.0 mi South 5.8 mph - N/A   Clear
11:51 PM 75.0 °F - 54.0 °F 48% 29.87 in 10.0 mi South 5.8 mph - N/A   Clear